[[{"header":{"parameterUnit":"m.s-1","parameterCategory":2,"la1":30.2991,"la2":30.254,"lo1":-89.0895,"lo2":-89.0444,"dy":0.0017,"dx":0.0017,"nx":28,"ny":28,"refTime":"2025-08-03T21:00:00:Z","depth":"0","parameterNumber":2,"parameterNumberName":"U-component_of_CURRENTS"},"data":[0,0,0,0,0,0,0,0,0,0,0,0,0,0,0,0,0,0,0,0,0,0,0,0,0,0,0,0,0,0,0,0,0,0,0,0,0,0,0,0,0,0,0,0,0,0,0,0,0,0,0,0,0,0,0,0,0,0,0.2122,0.2122,0,0.2095,0.2095,0.2094,0.2056,0.2056,0.2056,0.2055,0.2004,0.2003,0.2002,0,0,0,0,0,0,0,0,0,0,0,0,0,0.2162,0.2161,0.2122,0.2122,0.2122,0.2095,0.2095,0.2094,0.2056,0.2056,0.2056,0.2055,0.2004,0.2003,0.2002,0,0,0,0,0,0,0,0,0,0,0,0,0,0.2138,0.2161,0.2122,0.2102,0.2101,0.2095,0.2095,0.2094,0.2056,0.2056,0.2055,0.2055,0.2005,0.2003,0.2002,0.2003,0,0,0.1997,0.1996,0,0,0,0,0,0,0,0,0.2139,0.2136,0.2105,0.2104,0.2102,0.2081,0.209,0.2063,0.2057,0.207,0.2055,0.2055,0.203,0.2026,0.2018,0.2001,0.1998,0.1997,0.1996,0.1995,0.1995,0,0,0,0,0,0,0,0.2141,0.2137,0.2108,0.2105,0.2103,0.2102,0.2098,0.2085,0.2051,0.2069,0.2067,0.2069,0.2028,0.202,0.2017,0.1998,0.1997,0.1996,0.1995,0.1994,0.2043,0.2045,0,0,0,0,0,0,0.215,0.2139,0.2109,0.2108,0.2123,0.2102,0.2097,0.2086,0.2051,0.2046,0.2069,0.2067,0.2023,0.2019,0.2015,0.2089,0.1995,0.1994,0.1993,0.204,0.2043,0.2046,0,0,0,0,0,0,0.2151,0.2147,0.211,0.2126,0.2122,0.2102,0.209,0.2086,0.2083,0.2052,0.2046,0.2072,0.2022,0.2017,0.2023,0.2084,0.1993,0.1992,0.2038,0.2041,0.2044,0.219,0,0,0,0,0,0,0.2151,0.2147,0.2145,0.2126,0.2121,0.2124,0.2091,0.2086,0.2086,0.2083,0.2053,0.2047,0.2021,0.2026,0.2022,0.208,0.199,0.2035,0.2039,0.2043,0.2183,0.2198,0.2211,0,0,0,0,0,0.2153,0.2157,0.2145,0.2142,0.2118,0.2125,0.2123,0.2105,0.2087,0.2098,0.208,0.2048,0.205,0.2026,0.2021,0.2081,0.2033,0.2038,0.2043,0.2176,0.2195,0.2211,0,0,0,0,0,0,0.2172,0.2153,0.214,0.2136,0.2139,0.2121,0.213,0.2114,0.2107,0.2104,0.2067,0.2061,0.2096,0.2061,0.2036,0.2107,0.204,0.2044,0.2144,0.2161,0.2175,0.2205,0.1989,0,0,0,0,0,0.2176,0.2171,0.2161,0.2159,0.2165,0.2148,0.2149,0.2139,0.213,0.2125,0.2105,0.2094,0.2112,0.2113,0.211,0.2138,0.2167,0.2175,0.219,0.2202,0.2223,0.2355,0.2385,0.2062,0.2062,0.2062,0,0,0.2181,0.2172,0.2167,0.2164,0.2161,0.2191,0.2147,0.2158,0.2193,0.2122,0.2155,0.2141,0.213,0.2174,0.2187,0.2152,0.2305,0.2208,0.222,0.2234,0.2363,0.2395,0.2424,0.2065,0.2065,0.2064,0,0,0.2201,0.2186,0.2196,0.2209,0.2218,0.2221,0.223,0.2223,0.2233,0.2255,0.2236,0.2262,0.225,0.228,0.229,0.238,0.238,0.2371,0.2468,0.2597,0.2625,0.2651,0.2718,0.2748,0.2377,0.2377,0.2377,0,0.2209,0.2221,0.2204,0.2232,0.2259,0.2243,0.2285,0.2301,0.2298,0.2328,0.2283,0.2334,0.2315,0.2415,0.2444,0.2419,0.2469,0.2405,0.2621,0.2646,0.267,0.2733,0.2765,0.2385,0.2384,0.2383,0.2382,0,0.2242,0.2265,0.2281,0.2314,0.2342,0.2376,0.2406,0.2437,0.2439,0.2452,0.2528,0.2512,0.2547,0.2552,0.2522,0.2682,0.2655,0.263,0.2585,0.2713,0.2768,0.2799,0.2396,0.2393,0.2391,0.2389,0,0,0.2222,0.2291,0.2296,0.2346,0.2393,0.2427,0.2505,0.2579,0.2643,0.2649,0.2735,0.2775,0.2761,0.2773,0.2755,0.285,0.3046,0.2815,0.2818,0.2895,0.3309,0.3078,0.3089,0.3075,0.3081,0.3086,0.3276,0,0.2257,0.2342,0.2362,0.2462,0.2522,0.2558,0.2637,0.2703,0.2742,0.2816,0.2848,0.2906,0.2852,0.2872,0.2972,0.3026,0.3136,0.2994,0.316,0.3164,0.2958,0.312,0.2896,0.3029,0.3306,0.3311,0.3315,0,0.2278,0.2345,0.245,0.257,0.2598,0.2655,0.2791,0.2855,0.2961,0.299,0.3064,0.3068,0.3198,0.3122,0.3336,0.3253,0.3305,0.3339,0.3347,0.3105,0.2992,0.2947,0.3074,0.2943,0.3361,0.3358,0.3354,0,0.2297,0.2403,0.2501,0.254,0.2669,0.2733,0.2798,0.2908,0.2983,0.3102,0.3156,0.3287,0.335,0.3473,0.3501,0.3463,0.371,0.3666,0.3515,0.3497,0.3321,0.3274,0.335,0.3856,0.3856,0.3855,0.3855,0,0.2335,0.2413,0.2518,0.2581,0.2712,0.2771,0.2904,0.2983,0.3088,0.319,0.3243,0.3339,0.3452,0.3561,0.3599,0.3633,0.3806,0.357,0.3556,0.3355,0.3312,0.3193,0.3165,0.3862,0.3861,0.3859,0.3858,0,0.2361,0.2417,0.2552,0.2691,0.2731,0.283,0.296,0.3055,0.3136,0.327,0.3313,0.3443,0.3558,0.3615,0.3792,0.373,0.3659,0.376,0.3466,0.341,0.3068,0.3055,0.3027,0.2961,0.3647,0.3643,0.3639,0,0.2401,0.2466,0.2631,0.2715,0.2784,0.2909,0.2997,0.3085,0.3169,0.3327,0.3398,0.3515,0.3552,0.3661,0.3593,0.3599,0.3535,0.3389,0.3258,0.3046,0.3028,0.2927,0.287,0.3103,0.3096,0.309,0.3084,0,0.2505,0.255,0.2669,0.2818,0.2926,0.3023,0.3132,0.3189,0.3289,0.3354,0.3431,0.3452,0.3464,0.3327,0.3272,0.3251,0.3155,0.3251,0.3172,0.272,0.2492,0.2416,0.2947,0.3029,0.3034,0.3038,0.3041,0.3044,0.2599,0.2688,0.2818,0.2952,0.3055,0.3114,0.3132,0.3202,0.326,0.325,0.3368,0.325,0.3105,0.2949,0.2923,0.2626,0.2744,0.2498,0.2541,0.2489,0.2288,0.263,0.2582,0.2585,0.2587,0.2589,0.2591,0,0.2723,0.2798,0.2938,0.3061,0.3122,0.3147,0.3204,0.3138,0.311,0.3072,0.3029,0.2744,0.2542,0.2396,0.2106,0.196,0.1911,0.1888,0.1765,0.1782,0.2214,0.2043,0.1704,0.1704,0.1705,0.1705,0.1705,0.1705,0.281,0.2933,0.2976,0.3083,0.3122,0.3079,0.3052,0.2934,0.2841,0.2557,0.2302,0.2207,0.2023,0.1765,0.1518,0.1475,0.1414,0.1253,0.1378,0.1707,0.1769,0.1827,0.1659,0.1246,0.1245,0.0814,0.0811,0.0808]},{"header":{"parameterUnit":"m.s-1","parameterCategory":2,"la1":30.2991,"la2":30.254,"lo1":-89.0895,"lo2":-89.0444,"dy":0.0017,"dx":0.0017,"nx":28,"ny":28,"refTime":"2025-08-03T21:00:00:Z","depth":"0","parameterNumber":3,"parameterNumberName":"V-component_of_CURRENTS"},"data":[0,0,0,0,0,0,0,0,0,0,0,0,0,0,0,0,0,0,0,0,0,0,0,0,0,0,0,0,0,0,0,0,0,0,0,0,0,0,0,0,0,0,0,0,0,0,0,0,0,0,0,0,0,0,0,0,0,0,0.0126,0.0126,0,0.0147,0.0147,0.0147,0.0146,0.0146,0.0145,0.0145,0.0135,0.0135,0.0135,0,0,0,0,0,0,0,0,0,0,0,0,0,0.0092,0.0093,0.0126,0.0126,0.0127,0.0146,0.0147,0.0147,0.0146,0.0146,0.0145,0.0145,0.0135,0.0135,0.0135,0,0,0,0,0,0,0,0,0,0,0,0,0,0.0108,0.0093,0.0126,0.0129,0.013,0.0146,0.0147,0.0147,0.0146,0.0146,0.0145,0.0145,0.0135,0.0135,0.0135,0.0141,0,0,0.0135,0.0135,0,0,0,0,0,0,0,0,0.0107,0.0109,0.0128,0.0129,0.013,0.0144,0.0131,0.0144,0.0146,0.0139,0.0145,0.0145,0.0136,0.0136,0.014,0.014,0.014,0.0135,0.0135,0.0135,0.0134,0,0,0,0,0,0,0,0.0106,0.0109,0.0133,0.0129,0.013,0.0132,0.0133,0.0134,0.0138,0.014,0.014,0.0143,0.0136,0.014,0.0139,0.014,0.0135,0.0135,0.0134,0.0134,0.0162,0.0163,0,0,0,0,0,0,0.0105,0.0108,0.0133,0.0134,0.0118,0.0133,0.0135,0.0139,0.0139,0.0139,0.0144,0.0143,0.014,0.0139,0.0139,0.0174,0.0135,0.0134,0.0134,0.0162,0.0163,0.0164,0,0,0,0,0,0,0.0105,0.0108,0.0132,0.0122,0.0125,0.0133,0.0139,0.014,0.0144,0.0142,0.0141,0.0147,0.014,0.0139,0.0146,0.0173,0.0134,0.0134,0.0161,0.0162,0.0163,0.0227,0,0,0,0,0,0,0.0104,0.0107,0.0109,0.0122,0.0126,0.0147,0.0139,0.014,0.0147,0.0147,0.0145,0.0143,0.014,0.0146,0.0146,0.0172,0.0134,0.016,0.0161,0.0163,0.0224,0.023,0.0236,0,0,0,0,0,0.0102,0.011,0.0109,0.0112,0.0129,0.0148,0.015,0.0154,0.0147,0.0155,0.0154,0.0143,0.0156,0.0147,0.0146,0.0173,0.0159,0.0161,0.0163,0.0221,0.0229,0.0235,0,0,0,0,0,0,0.0095,0.0111,0.011,0.0122,0.0135,0.0148,0.0156,0.0156,0.0161,0.0159,0.0152,0.0152,0.0169,0.0158,0.0148,0.0184,0.0156,0.0158,0.0201,0.0208,0.0214,0.0234,0.0134,0,0,0,0,0,0.0095,0.0106,0.012,0.0129,0.0137,0.0145,0.0152,0.0155,0.0163,0.0165,0.0165,0.0166,0.0176,0.0181,0.0183,0.0201,0.0217,0.0217,0.0223,0.0228,0.0244,0.0299,0.0312,0.0169,0.0169,0.0169,0,0,0.0093,0.0105,0.011,0.0129,0.0138,0.0165,0.0149,0.0164,0.0189,0.0162,0.0191,0.0184,0.0184,0.0209,0.0215,0.0204,0.0275,0.023,0.0235,0.0248,0.0302,0.0316,0.0329,0.0171,0.017,0.017,0,0,0.011,0.0109,0.013,0.0145,0.0164,0.0174,0.0179,0.0194,0.0204,0.0226,0.0219,0.0232,0.0238,0.0255,0.0262,0.03,0.0302,0.0292,0.0344,0.0398,0.041,0.0422,0.0455,0.0469,0.0299,0.0299,0.0299,0,0.0109,0.0139,0.0138,0.0168,0.0188,0.0182,0.0215,0.0228,0.0244,0.026,0.0242,0.0275,0.0269,0.0317,0.0331,0.0317,0.0339,0.0319,0.0408,0.042,0.043,0.0462,0.0476,0.0302,0.0302,0.0301,0.0301,0,0.0149,0.0173,0.0188,0.0227,0.0244,0.027,0.029,0.0306,0.031,0.0324,0.0361,0.0359,0.0382,0.038,0.0368,0.0439,0.0426,0.0409,0.0395,0.0449,0.0478,0.0492,0.0307,0.0306,0.0305,0.0304,0,0,0.0153,0.0207,0.0214,0.0241,0.0279,0.0297,0.0341,0.0382,0.0411,0.0425,0.0475,0.0491,0.0484,0.0492,0.048,0.0522,0.0608,0.0501,0.0502,0.0543,0.072,0.0663,0.0672,0.061,0.0613,0.0616,0.0708,0,0.0189,0.0254,0.0274,0.0333,0.0368,0.0381,0.0421,0.0452,0.0473,0.0515,0.053,0.0562,0.053,0.0539,0.0583,0.0613,0.0649,0.0584,0.0654,0.0656,0.0607,0.0688,0.0649,0.0724,0.0722,0.0724,0.0726,0,0.0231,0.027,0.0337,0.0391,0.0406,0.0436,0.0493,0.0527,0.058,0.0596,0.0637,0.0643,0.0716,0.0664,0.0766,0.0729,0.073,0.074,0.0743,0.0681,0.0626,0.067,0.075,0.0679,0.0748,0.0746,0.0744,0,0.0246,0.0314,0.0368,0.0389,0.0449,0.0475,0.0501,0.055,0.0585,0.0649,0.0688,0.0755,0.0812,0.084,0.0865,0.0827,0.0968,0.0915,0.0859,0.0854,0.083,0.0817,0.0859,0.0972,0.0972,0.0971,0.0971,0,0.0287,0.0328,0.0375,0.0406,0.0455,0.0487,0.0541,0.0572,0.0633,0.0712,0.0728,0.0822,0.0864,0.0939,0.0924,0.0959,0.1022,0.0895,0.0889,0.0847,0.0835,0.0777,0.0737,0.0975,0.0974,0.0973,0.0973,0,0.0306,0.0341,0.0397,0.0453,0.0467,0.0498,0.0553,0.0599,0.065,0.0761,0.0791,0.0912,0.103,0.1039,0.1117,0.105,0.1026,0.1041,0.0978,0.0961,0.0802,0.0766,0.0827,0.0808,0.1001,0.1,0.1,0,0.0325,0.0359,0.0418,0.0446,0.0472,0.0515,0.0553,0.06,0.0666,0.0839,0.0916,0.1049,0.1181,0.1249,0.1169,0.1131,0.1056,0.1011,0.0914,0.0814,0.0772,0.0756,0.0735,0.0912,0.091,0.0909,0.0909,0,0.036,0.0378,0.0426,0.0479,0.0519,0.0569,0.0637,0.0692,0.0799,0.0915,0.1129,0.1247,0.1308,0.1296,0.1189,0.113,0.0949,0.0984,0.0924,0.0748,0.0698,0.0668,0.0812,0.09,0.0901,0.0901,0.0902,0.0902,0.038,0.0416,0.0477,0.0526,0.0576,0.0657,0.0715,0.0828,0.0968,0.119,0.1288,0.1485,0.1377,0.1253,0.1142,0.0864,0.0908,0.0761,0.0741,0.0747,0.0683,0.0788,0.0831,0.0831,0.0832,0.0832,0.0832,0,0.0422,0.047,0.0521,0.0601,0.0669,0.0682,0.0802,0.0894,0.1099,0.1309,0.15,0.1538,0.1391,0.1186,0.0825,0.0652,0.0599,0.057,0.0548,0.0549,0.0684,0.0629,0.0578,0.0578,0.0578,0.0579,0.0579,0.0579,0.0452,0.0521,0.055,0.0674,0.0733,0.0836,0.0912,0.107,0.1226,0.1478,0.1588,0.1668,0.1488,0.0932,0.0572,0.0487,0.0407,0.0368,0.0367,0.0437,0.0453,0.0469,0.0409,0.0312,0.0312,0.0235,0.0234,0.0233]}],[{"header":{"parameterUnit":"m.s-1","parameterCategory":2,"la1":30.2991,"la2":30.254,"lo1":-89.0895,"lo2":-89.0444,"dy":0.0017,"dx":0.0017,"nx":28,"ny":28,"refTime":"2025-08-03T21:00:00:Z","depth":"2","parameterNumber":2,"parameterNumberName":"U-component_of_CURRENTS"},"data":[0,0,0,0,0,0,0,0,0,0,0,0,0,0,0,0,0,0,0,0,0,0,0,0,0,0,0,0,0,0,0,0,0,0,0,0,0,0,0,0,0,0,0,0,0,0,0,0,0,0,0,0,0,0,0,0,0,0,0.1653,0.1653,0,0.1636,0.1636,0.1635,0.1623,0.1623,0.1623,0.1624,0.1608,0.1608,0.1607,0,0,0,0,0,0,0,0,0,0,0,0,0,0.1688,0.1687,0.1653,0.1653,0.1653,0.1636,0.1636,0.1635,0.1623,0.1623,0.1624,0.1624,0.1609,0.1608,0.1607,0,0,0,0,0,0,0,0,0,0,0,0,0,0.1669,0.1687,0.1653,0.1647,0.1647,0.1636,0.1636,0.1635,0.1623,0.1623,0.1624,0.1624,0.1609,0.1608,0.1607,0.1597,0,0,0.1605,0.1604,0,0,0,0,0,0,0,0,0.167,0.1668,0.1648,0.1648,0.1647,0.1635,0.1643,0.1623,0.1623,0.1629,0.1624,0.1624,0.1619,0.1617,0.1609,0.1596,0.1595,0.1604,0.1604,0.1604,0.1603,0,0,0,0,0,0,0,0.1672,0.1668,0.1643,0.1648,0.1648,0.1651,0.1648,0.1639,0.162,0.1628,0.1628,0.1631,0.1619,0.161,0.1609,0.1595,0.1605,0.1604,0.1603,0.1603,0.1636,0.1637,0,0,0,0,0,0,0.1679,0.1669,0.1644,0.1643,0.1663,0.165,0.1647,0.1636,0.162,0.1619,0.1631,0.1631,0.1612,0.161,0.1608,0.1653,0.1604,0.1603,0.1602,0.1634,0.1636,0.1638,0,0,0,0,0,0,0.1679,0.1676,0.1644,0.1659,0.1656,0.1649,0.1637,0.1636,0.164,0.1623,0.1621,0.164,0.1612,0.161,0.162,0.165,0.1602,0.1602,0.1633,0.1635,0.1637,0.1705,0,0,0,0,0,0,0.168,0.1676,0.1677,0.1659,0.1655,0.1654,0.1637,0.1635,0.1643,0.1642,0.163,0.1628,0.1612,0.1621,0.1619,0.1648,0.1601,0.1631,0.1634,0.1636,0.1701,0.1709,0.1716,0,0,0,0,0,0.1681,0.1684,0.1677,0.1675,0.1654,0.1655,0.1654,0.1648,0.1643,0.1651,0.1646,0.1629,0.1636,0.1621,0.1618,0.1648,0.163,0.1633,0.1636,0.1697,0.1707,0.1715,0,0,0,0,0,0,0.1702,0.1682,0.1675,0.1671,0.1671,0.1655,0.1662,0.1657,0.1657,0.1658,0.1639,0.1638,0.1661,0.1644,0.1628,0.1666,0.1633,0.1636,0.1681,0.169,0.1697,0.1715,0.16,0,0,0,0,0,0.1707,0.1698,0.1688,0.1686,0.1688,0.1677,0.1678,0.1674,0.167,0.167,0.1663,0.166,0.1668,0.1671,0.167,0.1684,0.1706,0.1704,0.1712,0.1718,0.1732,0.1805,0.1821,0.1648,0.1648,0.1648,0,0,0.1711,0.1702,0.1696,0.169,0.1686,0.1692,0.1678,0.1685,0.1693,0.1668,0.1682,0.1685,0.1679,0.1701,0.171,0.1692,0.1778,0.1722,0.1728,0.1738,0.181,0.1827,0.1842,0.165,0.1649,0.1649,0,0,0.172,0.1713,0.1711,0.1713,0.1716,0.1712,0.172,0.1714,0.1719,0.1732,0.1724,0.1751,0.1746,0.1759,0.1762,0.1811,0.1817,0.1809,0.186,0.1931,0.1946,0.196,0.2008,0.2026,0.1812,0.1812,0.1812,0,0.1729,0.1721,0.1715,0.172,0.1721,0.1725,0.1728,0.1739,0.174,0.1755,0.1748,0.1789,0.1779,0.1827,0.1843,0.183,0.1865,0.1825,0.1943,0.1957,0.197,0.2016,0.2034,0.1816,0.1815,0.1815,0.1815,0,0.1735,0.1736,0.174,0.1741,0.1744,0.1752,0.1761,0.1779,0.1789,0.1805,0.1859,0.1865,0.1896,0.19,0.1883,0.197,0.1964,0.1947,0.1922,0.1992,0.2035,0.2053,0.1821,0.182,0.1818,0.1818,0,0,0.1725,0.1739,0.1739,0.1742,0.1753,0.1754,0.1783,0.1812,0.1851,0.1879,0.1931,0.1965,0.1992,0.1999,0.2,0.2056,0.2168,0.2044,0.2046,0.2096,0.2325,0.2162,0.2165,0.2181,0.2185,0.2188,0.2318,0,0.1729,0.1739,0.1743,0.1755,0.1758,0.1774,0.1808,0.184,0.1877,0.1935,0.198,0.2036,0.2025,0.2056,0.2115,0.216,0.222,0.2134,0.2246,0.2249,0.21,0.2182,0.1987,0.2073,0.2336,0.2339,0.2341,0,0.1726,0.1731,0.1739,0.1763,0.1768,0.1785,0.1834,0.187,0.1958,0.1993,0.2071,0.2111,0.2208,0.218,0.2327,0.2279,0.2312,0.234,0.2346,0.2183,0.2119,0.2046,0.2095,0.2371,0.2368,0.2366,0.2364,0,0.1711,0.1726,0.173,0.1734,0.1769,0.1786,0.1819,0.1894,0.1948,0.2049,0.2112,0.2217,0.2293,0.237,0.2418,0.24,0.2557,0.2537,0.2423,0.2412,0.2259,0.2227,0.2642,0.2641,0.2641,0.2641,0.264,0,0.1708,0.171,0.1728,0.1734,0.1761,0.1786,0.1847,0.1901,0.2002,0.2076,0.216,0.2232,0.2352,0.2438,0.2466,0.2494,0.2606,0.2452,0.2443,0.2273,0.2241,0.2502,0.2484,0.2646,0.2644,0.2644,0.2643,0,0.1691,0.1703,0.1702,0.1734,0.1758,0.1772,0.1864,0.192,0.2023,0.2123,0.2166,0.23,0.2399,0.2477,0.2593,0.255,0.2585,0.2555,0.2325,0.2283,0.2389,0.2373,0.2482,0.2478,0.2474,0.2471,0.2468,0,0.1687,0.1685,0.1704,0.1717,0.1733,0.1776,0.183,0.1922,0.1978,0.214,0.2183,0.232,0.2359,0.2457,0.242,0.2439,0.2516,0.2241,0.2153,0.2397,0.2378,0.2368,0.2358,0.1999,0.1993,0.1988,0.1984,0,0.1675,0.1674,0.1688,0.1706,0.1735,0.1763,0.1835,0.1887,0.1995,0.207,0.2162,0.221,0.2278,0.2183,0.217,0.2148,0.2218,0.2131,0.25,0.203,0.1941,0.1921,0.1929,0.1938,0.1943,0.1946,0.1949,0.195,0.1683,0.1673,0.1689,0.1681,0.1721,0.1736,0.1749,0.1813,0.187,0.1941,0.2038,0.2026,0.2036,0.1902,0.1831,0.177,0.1933,0.1848,0.1866,0.1889,0.1769,0.1674,0.16,0.1603,0.1605,0.1607,0.1609,0,0.1672,0.167,0.1674,0.167,0.1671,0.1721,0.1744,0.1698,0.1712,0.1776,0.1809,0.1629,0.1544,0.1559,0.1387,0.135,0.1366,0.1294,0.1317,0.1363,0.1404,0.1261,0.0957,0.0955,0.0953,0.0951,0,0,0.1683,0.1658,0.1617,0.1585,0.1635,0.1598,0.1596,0.1524,0.1487,0.1431,0.1409,0.1506,0.1521,0.1239,0.1179,0.1042,0.1203,0.0993,0.1518,0.1594,0.1633,0.1722,0.1552,0,0,0,0,0]},{"header":{"parameterUnit":"m.s-1","parameterCategory":2,"la1":30.2991,"la2":30.254,"lo1":-89.0895,"lo2":-89.0444,"dy":0.0017,"dx":0.0017,"nx":28,"ny":28,"refTime":"2025-08-03T21:00:00:Z","depth":"2","parameterNumber":3,"parameterNumberName":"V-component_of_CURRENTS"},"data":[0,0,0,0,0,0,0,0,0,0,0,0,0,0,0,0,0,0,0,0,0,0,0,0,0,0,0,0,0,0,0,0,0,0,0,0,0,0,0,0,0,0,0,0,0,0,0,0,0,0,0,0,0,0,0,0,0,0,0.0094,0.0094,0,0.0106,0.0106,0.0106,0.0108,0.0108,0.0108,0.0108,0.0093,0.0093,0.0092,0,0,0,0,0,0,0,0,0,0,0,0,0,0.0066,0.0067,0.0094,0.0094,0.0094,0.0106,0.0106,0.0106,0.0108,0.0108,0.0108,0.0108,0.0093,0.0093,0.0092,0,0,0,0,0,0,0,0,0,0,0,0,0,0.0078,0.0067,0.0094,0.0097,0.0097,0.0106,0.0106,0.0106,0.0108,0.0108,0.0108,0.0108,0.0093,0.0093,0.0092,0.0091,0,0,0.0091,0.009,0,0,0,0,0,0,0,0,0.0077,0.0079,0.0096,0.0097,0.0097,0.0106,0.0091,0.01,0.0108,0.0103,0.0108,0.0108,0.0095,0.0095,0.0097,0.009,0.009,0.0091,0.009,0.009,0.009,0,0,0,0,0,0,0,0.0077,0.0078,0.0098,0.0097,0.0097,0.0096,0.0097,0.0093,0.0099,0.0104,0.0104,0.0106,0.0095,0.0097,0.0096,0.009,0.0091,0.009,0.009,0.009,0.0086,0.0087,0,0,0,0,0,0,0.0077,0.0078,0.0098,0.0099,0.0088,0.0097,0.0098,0.0103,0.0099,0.0099,0.0106,0.0106,0.0098,0.0097,0.0096,0.0107,0.009,0.009,0.0089,0.0086,0.0086,0.0087,0,0,0,0,0,0,0.0076,0.0078,0.0097,0.0089,0.0091,0.0097,0.0102,0.0103,0.0106,0.0102,0.0101,0.0109,0.0098,0.0096,0.0096,0.0106,0.0089,0.0089,0.0086,0.0086,0.0086,0.0121,0,0,0,0,0,0,0.0075,0.0078,0.008,0.0089,0.0092,0.0107,0.0103,0.0103,0.0108,0.0108,0.0103,0.0102,0.0098,0.0097,0.0096,0.0105,0.0089,0.0086,0.0086,0.0086,0.0119,0.0122,0.0124,0,0,0,0,0,0.0074,0.008,0.008,0.0082,0.0095,0.0107,0.0109,0.0112,0.0108,0.0113,0.0109,0.0102,0.0098,0.0097,0.0095,0.0104,0.0085,0.0086,0.0086,0.0118,0.0121,0.0124,0,0,0,0,0,0,0.0066,0.0081,0.0081,0.009,0.0099,0.0108,0.0113,0.0113,0.0114,0.0113,0.0106,0.0104,0.0107,0.0099,0.0097,0.0103,0.009,0.009,0.0115,0.0118,0.0121,0.0135,0.0088,0,0,0,0,0,0.0066,0.0076,0.0087,0.0094,0.0099,0.0105,0.0109,0.0112,0.0116,0.0116,0.0113,0.0109,0.0108,0.0108,0.0104,0.0108,0.0106,0.0111,0.0114,0.0116,0.0126,0.0132,0.0136,0.0088,0.0088,0.0088,0,0,0.0063,0.0074,0.0078,0.0093,0.01,0.0116,0.0107,0.0117,0.013,0.0114,0.0126,0.0117,0.011,0.0117,0.0117,0.0111,0.0128,0.0117,0.0119,0.0128,0.0133,0.0138,0.0142,0.0088,0.0088,0.0088,0,0,0.0073,0.0074,0.009,0.0101,0.0116,0.0121,0.0125,0.0135,0.0138,0.0147,0.0139,0.0138,0.0135,0.0137,0.0136,0.0149,0.0141,0.0143,0.0171,0.0176,0.0181,0.0184,0.0186,0.0189,0.0146,0.0146,0.0146,0,0.0069,0.0094,0.0095,0.0117,0.0131,0.0126,0.0149,0.0152,0.0159,0.0169,0.0155,0.0162,0.0148,0.0167,0.0167,0.0157,0.0157,0.0161,0.0181,0.0185,0.0188,0.0188,0.0192,0.0148,0.0148,0.0148,0.0147,0,0.0096,0.0115,0.0126,0.0153,0.0166,0.0183,0.0192,0.0201,0.02,0.0205,0.0219,0.0203,0.0213,0.0201,0.0187,0.0205,0.0196,0.0183,0.0176,0.0195,0.0194,0.0197,0.015,0.015,0.0149,0.0149,0,0,0.0095,0.0137,0.0142,0.0169,0.0189,0.0208,0.0226,0.0251,0.0282,0.0267,0.0305,0.0282,0.0275,0.0273,0.0255,0.025,0.0262,0.0227,0.0226,0.0234,0.0274,0.0232,0.0231,0.0253,0.0254,0.0255,0.0263,0,0.0119,0.0172,0.0182,0.0232,0.0263,0.0268,0.0295,0.0313,0.0326,0.0358,0.0334,0.0363,0.0303,0.032,0.03,0.0286,0.0272,0.0261,0.0249,0.0249,0.0214,0.0234,0.0249,0.0255,0.0266,0.0266,0.0267,0,0.0147,0.0184,0.0238,0.0295,0.0309,0.0332,0.0389,0.0413,0.0443,0.046,0.0467,0.0458,0.0456,0.0403,0.037,0.0367,0.032,0.0292,0.0291,0.0245,0.0213,0.0237,0.026,0.0272,0.0271,0.0271,0.0271,0,0.0168,0.0224,0.0274,0.0291,0.0348,0.0374,0.0402,0.0443,0.0501,0.0534,0.059,0.056,0.0585,0.0515,0.0435,0.0416,0.0394,0.0365,0.0277,0.0274,0.0281,0.0277,0.0333,0.0333,0.0333,0.0333,0.0333,0,0.0201,0.024,0.0289,0.0319,0.0388,0.041,0.0495,0.0519,0.0595,0.0684,0.0649,0.0709,0.0617,0.0587,0.0481,0.0392,0.0429,0.0291,0.0277,0.0291,0.0288,0.0297,0.0292,0.0333,0.0333,0.0333,0.0333,0,0.0226,0.0252,0.0318,0.038,0.0403,0.0455,0.0566,0.0648,0.0697,0.0816,0.0842,0.0851,0.0808,0.0694,0.0598,0.048,0.0382,0.0332,0.0349,0.0335,0.0247,0.0244,0.0255,0.0254,0.0253,0.0252,0.0251,0,0.0245,0.0281,0.0364,0.042,0.0452,0.0537,0.062,0.0691,0.0789,0.0902,0.0971,0.0967,0.0954,0.0785,0.0594,0.0414,0.0382,0.0301,0.0254,0.0255,0.0241,0.024,0.0239,0.0282,0.0282,0.0282,0.0281,0,0.0288,0.0316,0.038,0.0492,0.0578,0.0693,0.0802,0.0888,0.0992,0.1074,0.1159,0.115,0.0998,0.0813,0.0563,0.0435,0.0328,0.0286,0.0311,0.0286,0.0278,0.0264,0.0263,0.0278,0.0278,0.0278,0.0279,0.0279,0.0325,0.0385,0.0475,0.0583,0.0694,0.0837,0.0921,0.104,0.1167,0.1264,0.1256,0.1214,0.1034,0.0688,0.0501,0.03,0.0302,0.0218,0.0221,0.0224,0.0212,0.0201,0.0185,0.0184,0.0184,0.0184,0.0184,0,0.0383,0.0461,0.0567,0.07,0.0827,0.0875,0.1047,0.1116,0.1232,0.1286,0.1309,0.1102,0.0909,0.0699,0.0401,0.0222,0.0219,0.0164,0.0206,0.0211,0.0214,0.0203,0.0173,0.0172,0.0172,0.0171,0,0,0.0424,0.0532,0.0592,0.079,0.0887,0.1044,0.1134,0.1208,0.1255,0.1266,0.1221,0.1165,0.0928,0.0707,0.0492,0.0332,0.0306,0.0295,0.0322,0.0402,0.0408,0.0262,0.025,0,0,0,0,0]}],[{"header":{"parameterUnit":"m.s-1","parameterCategory":2,"la1":30.2991,"la2":30.254,"lo1":-89.0895,"lo2":-89.0444,"dy":0.0017,"dx":0.0017,"nx":28,"ny":28,"refTime":"2025-08-03T21:00:00:Z","depth":"4","parameterNumber":2,"parameterNumberName":"U-component_of_CURRENTS"},"data":[0,0,0,0,0,0,0,0,0,0,0,0,0,0,0,0,0,0,0,0,0,0,0,0,0,0,0,0,0,0,0,0,0,0,0,0,0,0,0,0,0,0,0,0,0,0,0,0,0,0,0,0,0,0,0,0,0,0,0.0892,0.0892,0,0.09,0.09,0.09,0.0921,0.0922,0.0922,0.0923,0.0953,0.0953,0.0953,0,0,0,0,0,0,0,0,0,0,0,0,0,0.0915,0.0914,0.0891,0.0892,0.0892,0.09,0.09,0.09,0.0921,0.0922,0.0922,0.0923,0.0953,0.0953,0.0954,0,0,0,0,0,0,0,0,0,0,0,0,0,0.0912,0.0914,0.0891,0.0903,0.0905,0.09,0.09,0.09,0.0921,0.0922,0.0923,0.0923,0.0952,0.0953,0.0954,0.0943,0,0,0.0955,0.0955,0,0,0,0,0,0,0,0,0.0912,0.0911,0.0902,0.0903,0.0904,0.091,0.0919,0.0916,0.0921,0.0915,0.0923,0.0924,0.094,0.0942,0.0941,0.0945,0.0946,0.0955,0.0956,0.0956,0.0956,0,0,0,0,0,0,0,0.0912,0.0911,0.0895,0.0902,0.0903,0.0915,0.0916,0.0919,0.0924,0.0915,0.0917,0.0918,0.0941,0.0941,0.0942,0.0946,0.0955,0.0956,0.0956,0.0956,0.1019,0.1021,0,0,0,0,0,0,0.0909,0.0911,0.0894,0.0895,0.091,0.0914,0.0915,0.0907,0.0923,0.0926,0.0917,0.0919,0.0939,0.0942,0.0943,0.0997,0.0956,0.0956,0.0957,0.1018,0.102,0.1021,0,0,0,0,0,0,0.0909,0.0907,0.0894,0.0904,0.0903,0.0913,0.0905,0.0907,0.093,0.0925,0.0928,0.094,0.094,0.0943,0.0966,0.0996,0.0957,0.0957,0.1016,0.1018,0.102,0.1062,0,0,0,0,0,0,0.091,0.0907,0.0915,0.0903,0.0902,0.0905,0.0905,0.0907,0.0928,0.0931,0.0945,0.0947,0.0941,0.0965,0.0966,0.0996,0.0958,0.1015,0.1017,0.102,0.1059,0.1066,0.1071,0,0,0,0,0,0.0911,0.0912,0.0915,0.0914,0.0908,0.0906,0.0907,0.0916,0.0928,0.0939,0.0952,0.0948,0.0983,0.0966,0.0968,0.0998,0.1013,0.1017,0.1019,0.1057,0.1064,0.1071,0,0,0,0,0,0,0.0929,0.0914,0.0917,0.0916,0.0919,0.091,0.0924,0.093,0.0947,0.096,0.0957,0.096,0.0994,0.099,0.0972,0.1025,0.1001,0.1004,0.1028,0.1036,0.1041,0.1038,0.0958,0,0,0,0,0,0.0935,0.0934,0.0923,0.0928,0.0931,0.0934,0.094,0.0946,0.0952,0.0962,0.0971,0.0987,0.1003,0.1015,0.1024,0.1047,0.1053,0.1071,0.1077,0.1082,0.1082,0.1115,0.1124,0.1031,0.1031,0.1031,0,0,0.0943,0.0937,0.0938,0.0933,0.0939,0.0941,0.094,0.0955,0.0968,0.0962,0.0994,0.1007,0.1014,0.1043,0.1059,0.1046,0.1115,0.1086,0.109,0.1087,0.1119,0.1128,0.1136,0.1033,0.1033,0.1032,0,0,0.0952,0.0956,0.0957,0.0958,0.0967,0.0967,0.0976,0.098,0.0998,0.1022,0.1028,0.1058,0.1079,0.109,0.1097,0.1141,0.1144,0.1154,0.1181,0.1214,0.1221,0.1228,0.1258,0.1268,0.1157,0.1157,0.1157,0,0.097,0.0958,0.096,0.0961,0.0964,0.098,0.0983,0.1,0.1016,0.1032,0.1042,0.1092,0.11,0.1135,0.1153,0.1154,0.1173,0.1152,0.1221,0.1227,0.1234,0.1263,0.1273,0.116,0.1159,0.1159,0.1159,0,0.0963,0.0968,0.0972,0.0974,0.0982,0.099,0.1004,0.1027,0.1055,0.1071,0.1124,0.1143,0.1174,0.1187,0.1184,0.1236,0.1236,0.1224,0.12,0.1245,0.1274,0.1283,0.1163,0.1162,0.1161,0.1161,0,0,0.0964,0.0965,0.0971,0.0967,0.0989,0.0984,0.1021,0.1044,0.107,0.1115,0.1154,0.1197,0.1225,0.1236,0.1248,0.1275,0.134,0.1273,0.1274,0.1299,0.142,0.1292,0.1289,0.1344,0.1346,0.1347,0.1426,0,0.0963,0.095,0.0964,0.0968,0.0957,0.0988,0.1015,0.1046,0.1088,0.1133,0.1185,0.1233,0.1241,0.1271,0.1303,0.1334,0.1365,0.132,0.1376,0.1378,0.1254,0.1295,0.1352,0.1433,0.1435,0.1437,0.1438,0,0.0947,0.0937,0.0931,0.0941,0.0945,0.0961,0.0997,0.103,0.1104,0.1143,0.1213,0.1258,0.1332,0.1324,0.1412,0.1389,0.141,0.1425,0.1428,0.1296,0.1265,0.1377,0.1454,0.1453,0.1451,0.145,0.1449,0,0.0907,0.0916,0.0906,0.0906,0.0925,0.0943,0.0973,0.1034,0.1075,0.1167,0.1215,0.13,0.137,0.1411,0.1462,0.1451,0.1541,0.1526,0.1429,0.1422,0.1495,0.1487,0.1574,0.1574,0.1574,0.1574,0.1574,0,0.0872,0.0865,0.0886,0.0873,0.0878,0.0915,0.0955,0.0995,0.1082,0.114,0.123,0.129,0.1398,0.1465,0.1484,0.1486,0.1568,0.1438,0.1431,0.1513,0.1506,0.1502,0.1493,0.1577,0.1576,0.1575,0.1575,0,0.081,0.0828,0.0812,0.0838,0.0855,0.0858,0.0942,0.0972,0.1065,0.1149,0.119,0.132,0.1403,0.1473,0.1552,0.1512,0.152,0.1493,0.1587,0.1584,0.1377,0.137,0.1402,0.1398,0.1394,0.1392,0.1389,0,0.077,0.0753,0.0777,0.078,0.0793,0.0826,0.0858,0.0952,0.1003,0.1152,0.1189,0.131,0.1382,0.141,0.1469,0.1491,0.1464,0.1462,0.1404,0.1368,0.136,0.1357,0.1354,0.1384,0.1383,0.1382,0.1381,0,0.0689,0.0708,0.0696,0.0711,0.0736,0.0757,0.0822,0.0853,0.098,0.1077,0.117,0.1217,0.13,0.1356,0.1377,0.1384,0.1459,0.1427,0.1433,0.1379,0.1347,0.1341,0.1342,0.137,0.1371,0.1372,0.1373,0,0.0646,0.0621,0.0634,0.064,0.0666,0.0685,0.0721,0.0797,0.0866,0.1043,0.1072,0.1189,0.1306,0.1299,0.1317,0.1312,0.1287,0.124,0.1256,0.1269,0.118,0.1117,0.1067,0,0,0,0,0,0.061,0.0588,0.0572,0.0576,0.0595,0.0624,0.0701,0.0752,0.0887,0.0927,0.1002,0.1071,0.1116,0.1172,0.1139,0.1222,0.1269,0.1173,0.1217,0.1306,0.1319,0.1221,0,0,0,0,0,0,0.0586,0.0574,0.0553,0.053,0.0528,0.0553,0.0599,0.0677,0.0717,0.0858,0.0898,0.0993,0.1057,0.1133,0.112,0.113,0.113,0.1241,0.1237,0.1298,0.131,0.1321,0.1225,0,0,0,0,0]},{"header":{"parameterUnit":"m.s-1","parameterCategory":2,"la1":30.2991,"la2":30.254,"lo1":-89.0895,"lo2":-89.0444,"dy":0.0017,"dx":0.0017,"nx":28,"ny":28,"refTime":"2025-08-03T21:00:00:Z","depth":"4","parameterNumber":3,"parameterNumberName":"V-component_of_CURRENTS"},"data":[0,0,0,0,0,0,0,0,0,0,0,0,0,0,0,0,0,0,0,0,0,0,0,0,0,0,0,0,0,0,0,0,0,0,0,0,0,0,0,0,0,0,0,0,0,0,0,0,0,0,0,0,0,0,0,0,0,0,0.008,0.008,0,0.0086,0.0087,0.0087,0.0092,0.0092,0.0092,0.0092,0.0078,0.0078,0.0077,0,0,0,0,0,0,0,0,0,0,0,0,0,0.0062,0.0063,0.008,0.008,0.008,0.0086,0.0087,0.0087,0.0092,0.0092,0.0092,0.0092,0.0078,0.0078,0.0077,0,0,0,0,0,0,0,0,0,0,0,0,0,0.0069,0.0063,0.008,0.0084,0.0084,0.0086,0.0087,0.0087,0.0092,0.0092,0.0092,0.0092,0.0079,0.0078,0.0077,0.0071,0,0,0.0075,0.0075,0,0,0,0,0,0,0,0,0.0069,0.007,0.0083,0.0083,0.0084,0.0089,0.0075,0.008,0.0092,0.0089,0.0092,0.0092,0.008,0.0079,0.008,0.007,0.007,0.0075,0.0075,0.0075,0.0074,0,0,0,0,0,0,0,0.0068,0.007,0.0082,0.0083,0.0084,0.0082,0.0083,0.0076,0.0083,0.0089,0.009,0.0091,0.008,0.0081,0.008,0.0069,0.0075,0.0075,0.0074,0.0074,0.0055,0.0055,0,0,0,0,0,0,0.0069,0.0069,0.0082,0.0082,0.0077,0.0082,0.0083,0.0087,0.0084,0.0083,0.0091,0.0091,0.0082,0.0081,0.0079,0.008,0.0075,0.0074,0.0074,0.0055,0.0055,0.0055,0,0,0,0,0,0,0.0068,0.007,0.0082,0.0076,0.0077,0.0082,0.0086,0.0087,0.009,0.0085,0.0084,0.0093,0.0082,0.008,0.0076,0.0079,0.0074,0.0073,0.0056,0.0055,0.0055,0.0076,0,0,0,0,0,0,0.0068,0.007,0.0071,0.0076,0.0078,0.0086,0.0086,0.0087,0.0091,0.0091,0.0087,0.0086,0.0082,0.0077,0.0076,0.0078,0.0072,0.0056,0.0055,0.0055,0.0075,0.0076,0.0077,0,0,0,0,0,0.0067,0.0071,0.0072,0.0073,0.0081,0.0086,0.0087,0.0091,0.0091,0.0094,0.009,0.0086,0.0075,0.0077,0.0075,0.0077,0.0056,0.0056,0.0055,0.0075,0.0076,0.0077,0,0,0,0,0,0,0.0062,0.0072,0.0073,0.0078,0.0083,0.0087,0.009,0.0091,0.0091,0.0092,0.0086,0.0084,0.0081,0.0075,0.0077,0.007,0.0064,0.0063,0.0079,0.0081,0.0082,0.0094,0.0072,0,0,0,0,0,0.0062,0.0069,0.0075,0.0079,0.0082,0.0086,0.0088,0.0091,0.0092,0.0093,0.0089,0.0083,0.0078,0.0076,0.007,0.0067,0.0054,0.0066,0.0067,0.0068,0.0076,0.0057,0.0057,0.0055,0.0055,0.0055,0,0,0.0059,0.0067,0.007,0.0079,0.0083,0.0092,0.0088,0.0094,0.0102,0.009,0.0096,0.0087,0.0078,0.0076,0.0074,0.0071,0.0059,0.0068,0.0069,0.0077,0.0057,0.0057,0.0058,0.0054,0.0054,0.0054,0,0,0.0064,0.0067,0.0077,0.0083,0.0092,0.0096,0.0098,0.0103,0.0105,0.0108,0.0101,0.0095,0.0088,0.0084,0.0081,0.0083,0.0065,0.0077,0.0094,0.0075,0.0076,0.0076,0.005,0.0048,0.0078,0.0078,0.0078,0,0.0061,0.0078,0.0079,0.0092,0.0103,0.0099,0.0115,0.0113,0.0116,0.0122,0.0112,0.0105,0.0094,0.0096,0.0096,0.0086,0.0069,0.0091,0.0077,0.0077,0.0077,0.0051,0.0048,0.0079,0.0079,0.0079,0.0079,0,0.0075,0.009,0.0096,0.0115,0.0123,0.0135,0.0138,0.0143,0.0143,0.0144,0.0145,0.0127,0.0127,0.0115,0.0107,0.0101,0.0087,0.008,0.0076,0.0079,0.0051,0.0047,0.0081,0.008,0.008,0.008,0,0,0.007,0.0101,0.0105,0.0128,0.014,0.0155,0.0163,0.0179,0.0195,0.0179,0.0195,0.0174,0.0165,0.016,0.0143,0.0123,0.0099,0.0103,0.0101,0.0081,0.005,0.0045,0.0041,0.0088,0.0088,0.0088,0.0028,0,0.0085,0.0124,0.0131,0.0169,0.0194,0.0197,0.0213,0.0223,0.0223,0.0233,0.0208,0.0214,0.0181,0.0184,0.0157,0.0119,0.0093,0.0115,0.0048,0.0046,0.0045,0.0038,0.0087,0.0026,0.0025,0.0024,0.0024,0,0.0101,0.0132,0.0174,0.0221,0.0232,0.025,0.0287,0.0301,0.0304,0.0304,0.0294,0.0273,0.0246,0.0217,0.0146,0.0161,0.0109,0.0071,0.0067,0.0057,0.0036,0.0024,0.0018,0.0018,0.0019,0.0019,0.002,0,0.012,0.0163,0.0206,0.022,0.0264,0.0286,0.0311,0.0327,0.0353,0.0352,0.0361,0.0321,0.031,0.0238,0.015,0.015,0.0063,0.0054,-0.0002,-0.0003,0.001,0.0011,0.0002,0.0002,0.0002,0.0002,0.0003,0,0.0145,0.0179,0.0223,0.0249,0.0311,0.0325,0.0383,0.0396,0.0417,0.0449,0.0404,0.0405,0.0315,0.0251,0.0164,0.0068,0.0071,0.0002,-0.0016,0.0018,0.002,0.0007,0.0008,0.0,0.0001,0.0001,0.0002,0,0.0168,0.019,0.0246,0.03,0.0325,0.0372,0.0443,0.048,0.0488,0.0523,0.0525,0.0474,0.0388,0.0281,0.0165,0.0098,0.0,-0.0036,0.0002,-0.0013,-0.0057,-0.0054,-0.0095,-0.0095,-0.0096,-0.0096,-0.0097,0,0.0185,0.0216,0.029,0.0329,0.0359,0.0431,0.0484,0.0521,0.0557,0.056,0.0574,0.0506,0.0454,0.0284,0.0167,0.0002,-0.0022,-0.007,-0.0058,-0.0052,-0.0066,-0.0062,-0.0059,-0.0097,-0.0097,-0.0098,-0.0098,0,0.0218,0.024,0.0289,0.0373,0.0435,0.0512,0.0581,0.0612,0.0644,0.0649,0.0618,0.0527,0.043,0.0291,0.0161,0.0041,-0.0035,-0.0075,-0.0075,-0.0065,-0.0056,-0.0069,-0.0064,-0.01,-0.0099,-0.0099,-0.0099,0,0.0237,0.0274,0.0332,0.0412,0.0489,0.0561,0.0602,0.0641,0.0677,0.0671,0.0658,0.0541,0.0483,0.031,0.0186,0.0071,0.0046,0.0017,0.0012,0.0012,0.0059,0.0087,0.0074,0,0,0,0,0,0.0255,0.0297,0.0367,0.0449,0.0527,0.0576,0.0652,0.068,0.0707,0.0694,0.0678,0.0581,0.0405,0.0328,0.0212,0.0171,0.0022,0.0033,-0.0016,-0.0109,-0.0107,-0.0071,0,0,0,0,0,0,0.0264,0.0323,0.0365,0.0468,0.0527,0.0617,0.0665,0.0686,0.0679,0.0679,0.0587,0.0551,0.0378,0.0465,0.0207,0.0173,0.0127,-0.0047,-0.0049,-0.0111,-0.0109,-0.0107,-0.0069,0,0,0,0,0]}]]